{"data":{"norad_id":61532,"intl_designator":"2024-184A","name":"STARLINK-11354 [DTC]","alt_names":[],"object_type":"PAYLOAD","status":"ACTIVE","operator":null,"country":"US","launch_date":"2024-10-15","launch_site_code":"AFWTR","launch_vehicle":null,"mission":null,"orbit_class":"UNKNOWN","rcs_meters":null,"size_class":null,"mass_kg":null,"dimensions":null,"purposes":["comms"],"wikipedia_slug":null,"has_3d_model":false,"image_url":null,"decayed_at":null,"tle_current":{"epoch":"2026-05-25T04:54:07.816896Z","epoch_age_seconds":53608,"freshness":"FRESH","line1":"1 61532U 24184A   26145.20425714  .00001311  00000+0  15675-4 0  9992","line2":"2 61532  53.1587 219.1595 0000929  86.8255 273.2869 15.69715179 92430","mean_motion":15.69715179,"eccentricity":9.29e-5,"inclination_deg":53.1587,"raan_deg":219.1595,"arg_perigee_deg":86.8255,"mean_anomaly_deg":273.2869,"bstar":1.5675e-5,"rev_number":9243,"period_min":91.73638754754,"perigee_km":359.08598397933,"apogee_km":360.33787631056,"semimajor_km":6737.8489301449,"source":"CELESTRAK","updated_at":"2026-05-25T13:38:19.396995Z"}}}